User: anonymous   Login
Location: Nebula Knoll Observatory
(43.6666°N, 71.0000°W)
Time: 04:15:49
(UTC-04:00)
Language:

Cosmos 1782 - Orbit

View from above orbital plane
View from above orbital plane
View from above satellite
View from above satellite

Ground track
Ground track

The orbit data is extracted from the following two-line orbital elements,

1 16986U 86074A   15148.03234526  .00002045  00000-0  14198-3 0  9996
2 16986 082.5061 131.2721 0012596 032.6122 327.5880 15.05009738557806
Epoch (UTC): 28 May 2015 00:46:34
Eccentricity: 0.0012596
inclination: 82.5061°
perigee height: 543 km
apogee height: 560 km
right ascension of ascending node: 131.2721°
argument of perigee: 32.6122°
revolutions per day: 15.05009738
mean anomaly at epoch: 327.5880°
orbit number at epoch: 55780

The dashed part of the orbit path shows where the satellite is in the earth's shadow,  

DLR